Regional Weather Roundup
Issued by NWS

Home | Current Version | Previous Version | Text Only | Print | Product List | Glossary On
Versions: 1 2 3 4 5 6 7 8 9 10 11 12 13 14 15 16 17 18 19 20 21 22 23 24 25 26 27 28 29 30 31 32 33 34 35 36 37 38 39 40 41 42 43 44 45 46 47 48 49 50
000
ASUS42 KFFC 221810
RWRGA
WEATHER ROUNDUP FOR GEORGIA
NATIONAL WEATHER SERVICE PEACHTREE CITY GA
100 PM EST WED FEB 22 2017

NOTE: "FAIR" INDICATES FEW OR NO CLOUDS BELOW 12,000 FEET WITH NO
SIGNIFICANT WEATHER AND/OR OBSTRUCTIONS TO VISIBILITY.

* = USE WITH CAUTION. THE STATIONS MARKED WITH AN ASTERISK MAY NOT
REPORT WEATHER SUCH AS PRECIPITATION, FOG, OR THUNDER AND ARE NOT
QUALITY CONTROLLED BY NWS.

THE REMARK "TC" DENOTES TEMPERATURE READING IN DEGREES CELSIUS.

GAZ001>058-221900-
NORTH GEORGIA

CITY           SKY/WX    TMP DP  RH WIND       PRES   REMARKS
ATLANTA        PTSUNNY   66  60  81 E12       29.88F
6HR MIN TEMP:  61; 6HR MAX TEMP:  66; 6HR PCP:  0.05;

ATHENS         CLOUDY    67  58  72 NE8       29.92F
6HR MIN TEMP:  59; 6HR MAX TEMP:  67;

CHAMBLEE       CLOUDY    61  57  87 VRB6      29.90F
6HR MIN TEMP:  58; 6HR MAX TEMP:  61; 6HR PCP:  0.02;

PEACHTREE CITY CLOUDY    68  61  78 E6        29.87F
6HR MIN TEMP:  60; 6HR MAX TEMP:  69; 6HR PCP: TRACE;

ROME           CLOUDY    64  58  80 E9        29.89F
6HR MIN TEMP:  59; 6HR MAX TEMP:  64; 6HR PCP:  0.10;

WEST ATLANTA   CLOUDY    64  58  80 NE7       29.88F
6HR MIN TEMP:  60; 6HR MAX TEMP:  64; 6HR PCP:  0.03;

GAINESVILLE    CLOUDY    58  57  97 E8        29.94F
6HR MIN TEMP:  54; 6HR MAX TEMP:  57; 6HR PCP: TRACE;

CARTERSVILLE   CLOUDY    61  58  90 E5        29.91F
6HR MIN TEMP:  58; 6HR MAX TEMP:  61; 6HR PCP:  0.06;



CITY           SKY/WX    TMP DP  RH WIND       PRES   REMARKS
DALTON*        CLOUDY    63  61  94 CALM      29.91F
LAWRENCEVILLE* CLOUDY    61  57  88 NE9       29.92F FOG
MARIETTA       CLOUDY    61  59  94 VRB6      29.89F FOG
KENNESAW*      CLOUDY    57  57 100 E6        29.92F FOG
CANTON*        CLOUDY    59  54  82 E5        29.94S
$$

GAZ059>098-102>109-221900-
CENTRAL GEORGIA

CITY           SKY/WX    TMP DP  RH WIND       PRES   REMARKS
AUGUSTA-BUSH   CLOUDY    75  58  55 SE10      29.89F
6HR MIN TEMP:  57; 6HR MAX TEMP:  75;

AUGUSTA-DANIEL MOSUNNY   72  56  57 E10       29.91F
6HR MIN TEMP:  61; 6HR MAX TEMP:  73;

COLUMBUS       PTSUNNY   67  61  81 E9        29.82F
6HR MIN TEMP:  60; 6HR MAX TEMP:  67; 6HR PCP:  0.06;

MACON          PTSUNNY   69  60  73 E13       29.86F
6HR MIN TEMP:  63; 6HR MAX TEMP:  70;

ROBINS AFB     PTSUNNY   70  61  73 E9        29.85F


CITY           SKY/WX    TMP DP  RH WIND       PRES   REMARKS
LAGRANGE*      CLOUDY    69  67  93 SE7       29.85F
SYLVANIA*      RAIN     N/A N/A N/A E8        29.90F
MILLEDGEVILLE* PTSUNNY   72  61  68 E6        29.87F
$$

GAZ099>101-110>166-221900-
SOUTH GEORGIA

CITY           SKY/WX    TMP DP  RH WIND       PRES   REMARKS
SAVANNAH       RAIN      63  59  87 NE9       29.87F FOG
6HR MIN TEMP:  63; 6HR MAX TEMP:  69; 6HR PCP:  0.31;

VALDOSTA       LGT RAIN  69  63  81 SE8       29.78S
6HR MIN TEMP:  64; 6HR MAX TEMP:  70; 6HR PCP: TRACE;

ALMA           CLOUDY    69  61  75 E8G16     29.83S
6HR MIN TEMP:  64; 6HR MAX TEMP:  70;

ST SIMONS      CLOUDY    66  64  93 NE7       29.81F
6HR MIN TEMP:  64; 6HR MAX TEMP:  67; 6HR PCP:  0.44;

FT STEWART     HVY RAIN  64  63  94 CALM      29.83F FOG
ALBANY         CLOUDY    71  62  73 E8        29.81F
HUNTER AFB     MOSUNNY   65  65 100 CALM      29.84F
MOODY AFB      LGT RAIN  70  63  78 E9        29.77F
BRUNSWICK      LGT RAIN  66  64  94 NE8       29.83F


CITY           SKY/WX    TMP DP  RH WIND       PRES   REMARKS
BAINBRIDGE*    CLOUDY    68  64  88 NE9       29.77F
MOULTRIE*      LGT RAIN  70  63  78 E5        29.78F
VIDALIA*       CLOUDY    64  64 100 E7        29.87F
WAYCROSS*      CLOUDY    73  67  82 E14       29.81F
DOUGLAS*       CLOUDY    70  61  73 E8        29.84S
$$




USA.gov is the U.S. government's official web portal to all federal, state and local government web resources and services.